ROMMA est une association bénévole à but non lucratif. Votre soutien est indispensable : ADHERER à ROMMA ou FAIRE un DON

Chambon - (38, Isère)

Oisans (2460 m)   Longitude: 06° 10' 42" E   Latitude: 45° 01' 32" N Station partenaire n°803
 

Détail journalier du     <<     >>

Température Humidité Vent Dir Rafale Dir. rafale Neige 1 Neige 2
Heure (°C) (%) (km/h) (km/h) (cm) (cm)
01:00 -3.71005S17SSO010
02:00 -4.01003SE12SE010
03:00 -3.9998SE14SO010
04:00 -3.9997SO13SO011
05:00 -4.59712SO26SO011
06:00 -3.69712SSO22SO011
07:00 -2.4984SSE14SSE011
08:00 -2.0983SE11SE011
09:00 -1.8986SE13SSO011
10:00 -1.6959SSO13SSO010
11:00 0.5849SSO15SSO09
12:00 2.07311SSO19SSO09
13:00 3.3677SO15SO08
14:00 4.1434NNE12NNE07
15:00 5.5523NE13SSO08
16:00 4.9577SSO16SO39
17:00 6.2545SO15SO18
18:00 4.1544SO16SO09
19:00 3.5543SO8SO09
20:00 3.2543SO16NNO09
21:00 3.4524O16O09
22:00 2.9502O8O09
23:00 3.1552ONO8NNO09
minuit 2.8563SO9OSO09

Graphique du 16-10-2019

 

Serveur OMMA